Location: Владивосток
(43.1151°N, 131.8856°E)
Time: 17:52:59
(UTC+10:00)

FENGYUN 1C DEB - Pass Details

Date: 22 May 2025
Orbit: 716 x 738 km, 98.8° (Epoch: 20 June)

Event Time Altitude Azimuth Distance (km) Brightness Sun altitude
Exits shadow 02:41:07 49° 257° (WSW) 948 ? -23.1°
Maximum altitude 02:41:11 49° 260° (W) 948 ? -23.1°
Drops below altitude 10° 02:45:57 10° 335° (NNW) 2,241 ? -22.8°
Sets 02:48:19 0° 341° (NNW) 3,164 ? -22.6°
